This is the latest recevied weather packets stored in our database for station/object SP3TOM-10. If no packets are shown the sender has not sent any weather packets the latest 10 day(s).
| Time | Temp. | Humidity | Pressure | Rain* | Wind** | Luminosity | Snow |
|---|---|---|---|---|---|---|---|
| 1777702579 | 16.67° C | 37% | 1013.3 hPa | - | - | - | - |
| 1777701679 | 16.67° C | 37% | 1013.3 hPa | - | - | - | - |
| 1777700779 | 16.11° C | 36% | 1013.3 hPa | - | - | - | - |
| 1777699879 | 15.56° C | 36% | 1013.3 hPa | - | - | - | - |
| 1777698978 | 15.56° C | 36% | 1013.4 hPa | - | - | - | - |
| 1777698078 | 15.56° C | 36% | 1013.4 hPa | - | - | - | - |
| 1777697178 | 15.56° C | 35% | 1013.4 hPa | - | - | - | - |
| 1777696278 | 15.56° C | 35% | 1013.3 hPa | - | - | - | - |
| 1777695378 | 15.56° C | 35% | 1013.3 hPa | - | - | - | - |
| 1777694478 | 15.56° C | 34% | 1013.2 hPa | - | - | - | - |
| 1777693577 | 15.56° C | 35% | 1013.3 hPa | - | - | - | - |
| 1777692677 | 15.56° C | 34% | 1013.3 hPa | - | - | - | - |
| 1777691777 | 15.56° C | 35% | 1013.5 hPa | - | - | - | - |
| 1777690877 | 15.56° C | 35% | 1013.4 hPa | - | - | - | - |
| 1777689977 | 16.11° C | 35% | 1013.5 hPa | - | - | - | - |
| 1777689076 | 16.11° C | 35% | 1013.4 hPa | - | - | - | - |
| 1777688176 | 16.11° C | 34% | 1013.4 hPa | - | - | - | - |
| 1777687308 | 16.11° C | 35% | 1013.4 hPa | - | - | - | - |
| 1777687276 | 16.11° C | 35% | 1013.4 hPa | - | - | - | - |
| 1777686376 | 16.11° C | 34% | 1013.5 hPa | - | - | - | - |
| 1777685476 | 16.67° C | 34% | 1013.6 hPa | - | - | - | - |
| 1777684576 | 16.67° C | 34% | 1013.7 hPa | - | - | - | - |
| 1777683676 | 16.67° C | 34% | 1013.7 hPa | - | - | - | - |
| 1777682775 | 16.67° C | 34% | 1013.8 hPa | - | - | - | - |
| 1777681875 | 17.22° C | 34% | 1013.8 hPa | - | - | - | - |
* Rain since midnight (hover to see other rain measurements)
** Current wind speed in m/s (hover to see current wind gust speed)